Tracking 19489 objects as of 22-Jan-2019
HD Live streaming from Space Station
objects crossing your sky now

COMSTAR 1

Track COMSTAR 1 now!
COMSTAR 1 is classified as:


NORAD ID: 8838
Int'l Code: 1976-042A
Perigee: 35,887.8 km
Apogee: 35,952.6 km
Inclination: 13.3 °
Period: 1,442.6 minutes
Semi major axis: 42291 km
RCS: 2.2754 m2 (large)
Launch date: May 13, 1976
Source: United States (US)
Launch site: AIR FORCE EASTERN TEST RANGE (AFETR)
aabbcc
Your satellite tracking list
Your tracking list is empty




NASA's NSSDC Master Catalog

Two Line Element Set (TLE):
1  8838U 76042A   19022.47441228  .00000098  00000-0  00000+0 0  9998
2  8838  13.2564 329.7192 0007660 320.6596 214.3359  0.99822387 93640
Source of the keplerian elements: AFSPC